Theta_e
326 330 330 331 332 332 330 330 335 336 338 338 337 337 337 337 338 337 337 337 337 337 336 335 334 333 334 335 335 335 331 330 336 336 335 335 336 339 337 336 334 336 340
326 330 330 331 333 333 334 336 337 337 337 337 336 337 337 337 336 335 335 335 335 336 337 336 337 337 337 334 333 332 330 330 335 337 337 334 334 339 336 335 336 338 334
326 328 330 334 333 334 334 335 334 334 333 333 334 334 333 332 331 330 331 331 331 332 332 333 333 333 333 334 332 330 328 326 331 328 335 333 335 337 337 336 336 336 339
324 326 326 328 330 331 330 330 330 330 329 329 329 329 329 327 326 326 326 326 326 327 327 328 329 329 330 330 331 330 329 331 326 324 324 326 327 333 337 338 338 337 335
322 323 323 325 325 326 327 327 327 327 326 325 325 325 324 324 323 323 323 323 323 323 323 323 324 324 324 324 325 326 329 332 330 327 327 326 325 331 331 335 336 336 334
320 320 321 322 323 323 323 323 323 323 323 323 322 322 321 321 320 319 319 318 318 318 319 318 319 318 319 318 320 323 324 327 331 330 329 330 331 334 333 331 332 335 337
317 318 319 320 320 320 320 320 319 319 319 319 318 317 317 316 316 315 315 314 314 314 314 314 314 313 314 314 315 319 320 322 329 329 329 329 332 334 335 335 334 332 333
312 314 316 316 316 316 316 315 315 314 314 313 312 312 311 311 312 311 311 311 311 311 311 310 309 308 309 309 311 314 315 315 319 323 321 322 325 329 330 330 331 333 333
307 307 308 311 312 311 311 311 310 309 309 307 306 306 305 307 307 307 307 307 308 307 307 306 305 303 303 304 305 307 308 309 312 313 318 317 317 322 323 323 324 327 330
305 306 304 303 307 306 305 306 305 305 304 303 301 299 298 298 301 301 301 303 303 303 303 302 301 299 296 297 298 298 300 302 302 305 306 308 311 314 316 316 316 319 322
304 303 303 301 301 302 302 301 301 300 298 298 296 296 296 295 295 296 296 298 296 297 298 298 296 294 295 295 295 295 296 296 296 296 297 302 305 309 311 311 312 313 315
303 301 300 300 298 299 298 297 296 295 296 296 295 295 295 295 293 293 292 292 292 292 292 292 292 293 294 294 294 294 294 294 294 294 294 295 300 304 306 307 309 310 311
302 301 301 299 297 297 296 296 295 295 295 295 294 294 294 293 293 292 292 291 292 291 291 291 291 291 291 291 291 291 291 291 291 291 291 292 297 301 303 305 306 307 309
300 300 299 298 297 296 296 295 295 294 293 293 293 292 292 292 292 291 291 290 290 290 290 289 289 289 289 289 289 290 290 290 290 290 290 290 294 298 301 302 304 305 307
298 298 297 296 296 295 295 294 293 293 292 291 291 291 291 291 291 290 289 289 289 289 288 288 288 288 288 288 288 289 289 289 289 289 291 291 294 297 299 302 305 308 309
298 296 296 295 295 295 294 293 293 292 291 291 290 290 290 290 289 289 288 288 288 288 287 288 287 287 287 288 288 288 288 288 290 291 291 292 292 294 297 303 304 306 307
297 296 295 295 294 294 293 292 292 291 291 291 290 289 289 288 288 288 288 287 287 287 286 287 286 286 287 287 287 287 287 288 290 291 291 291 291 291 292 298 298 299 301
297 295 294 294 294 293 292 292 291 291 290 289 289 288 288 287 287 287 287 286 286 286 286 285 285 285 285 285 286 286 286 288 288 288 289 289 290 289 290 293 293 294 295
297 294 293 293 292 292 291 291 290 290 289 288 288 287 287 287 286 286 286 285 285 285 285 285 285 285 284 284 285 285 286 287 287 288 288 288 288 288 288 288 288 288 291
296 294 293 292 292 291 291 290 289 289 288 288 288 287 286 286 286 285 285 285 284 285 284 284 284 284 284 283 284 284 286 286 286 287 286 287 286 286 286 286 286 287 288
295 294 292 292 291 291 290 290 289 289 288 287 287 287 286 286 285 285 284 284 284 284 283 283 283 283 283 283 283 284 285 286 286 285 285 285 285 286 286 285 285 285 285
294 293 292 291 291 291 290 290 289 289 288 287 287 286 285 285 285 284 284 284 283 283 283 283 283 282 283 282 282 283 284 285 286 284 285 285 285 285 285 284 284 284 284
291 291 291 291 291 290 290 290 289 288 287 286 286 285 285 285 284 284 284 283 283 282 282 282 282 282 282 282 282 283 283 284 282 284 284 284 284 284 284 283 283 283 283
290 291 291 290 290 290 290 290 289 288 287 286 286 285 284 284 284 283 283 283 282 282 282 281 281 281 281 281 282 282 282 282 283 282 283 282 283 283 282 282 282 282 283
290 290 290 290 290 290 289 290 288 288 287 286 285 284 284 283 283 283 282 282 282 281 281 281 281 281 281 281 281 281 281 281 281 281 281 282 281 282 282 282 282 282 282
289 290 290 289 289 289 288 288 288 288 286 285 284 284 283 283 282 282 282 282 281 281 281 281 281 281 280 280 280 280 281 281 281 281 281 281 281 281 281 281 281 282 282
Wind_Speed
15 9 2 3 6 8 10 11 13 14 16 18 19 21 21 21 21 22 21 21 21 18 18 18 17 17 17 17 17 17 18 16 13 16 16 14 13 13 13 12 12 13 12
13 16 4 7 9 12 14 14 18 20 20 22 24 23 23 24 22 23 22 21 21 22 22 20 19 18 18 18 17 17 19 19 15 14 16 16 14 13 12 10 10 11 11
13 7 19 21 17 21 21 23 24 24 25 25 24 22 21 21 20 20 21 21 21 21 20 19 19 20 20 19 18 16 17 19 17 15 12 14 16 15 13 11 9 8 8
18 11 13 20 15 14 18 21 20 19 22 22 21 20 21 20 20 19 19 20 19 19 19 18 19 19 20 19 19 17 16 17 13 13 12 12 13 14 13 12 10 7 7
15 14 11 16 19 18 18 18 19 21 20 20 19 19 20 19 20 19 19 19 19 19 19 19 18 18 18 18 17 17 16 16 13 12 11 11 11 12 11 11 11 10 7
16 16 13 13 17 17 17 19 18 19 19 19 18 18 19 19 20 19 18 19 19 19 19 19 18 19 19 19 17 16 17 16 15 15 13 12 12 12 12 12 12 11 12
14 16 14 13 16 16 17 19 17 18 19 18 18 19 18 18 19 18 18 18 19 19 19 19 19 18 18 17 14 14 14 15 12 13 12 14 16 13 13 14 12 12 12
16 16 14 14 15 16 16 18 17 18 17 17 18 18 18 18 18 17 18 18 18 18 18 18 19 18 18 17 12 11 11 12 12 11 13 13 16 16 15 17 15 15 12
14 15 14 16 15 16 15 16 17 16 16 17 18 17 17 17 17 17 18 17 18 18 18 18 18 17 16 15 11 8 8 8 9 10 9 11 16 16 16 16 15 15 14
17 16 14 13 15 18 16 15 17 16 16 16 17 16 15 16 16 17 18 18 19 18 18 18 18 17 14 14 14 9 7 6 9 8 8 11 14 15 15 15 16 15 14
19 17 17 14 14 15 15 15 14 14 14 16 16 16 14 14 14 14 16 17 17 16 17 17 16 13 12 12 12 12 10 12 11 11 11 15 16 16 16 16 16 16 15
21 20 19 16 14 13 13 12 14 14 14 14 14 14 13 12 14 14 15 16 15 16 15 15 14 13 12 13 12 12 13 12 13 13 13 15 16 16 17 17 16 16 16
24 21 19 18 16 15 15 14 14 13 13 13 13 13 13 12 12 13 13 15 14 14 15 14 15 15 15 14 14 14 14 14 14 14 14 14 15 16 16 16 17 17 16
23 21 20 20 19 17 16 14 14 15 13 14 13 13 12 12 12 13 14 14 14 15 14 15 16 16 14 15 16 16 15 15 15 15 15 14 15 16 16 16 17 16 15
25 24 23 22 22 20 19 18 17 17 15 15 14 13 11 11 12 11 14 14 14 13 15 16 17 16 16 18 18 17 16 17 18 16 14 14 15 15 16 17 15 14 14
28 26 24 23 22 21 19 18 18 16 15 14 14 13 12 11 11 11 12 13 13 14 15 15 16 16 18 19 18 17 17 18 14 12 13 14 14 15 15 14 14 14 15
32 28 26 25 23 22 22 20 19 17 14 12 12 11 11 9 9 10 11 13 13 12 13 13 14 15 17 18 17 15 18 13 11 12 13 12 14 14 13 13 14 15 16
32 30 27 26 25 24 22 20 17 15 14 13 12 10 10 9 9 10 11 12 11 11 13 14 17 18 18 22 19 16 16 8 8 10 8 14 13 15 15 15 16 17 18
34 32 29 28 27 25 22 20 18 16 14 13 11 10 9 9 10 10 11 10 10 12 14 16 17 19 19 24 18 15 11 8 7 7 8 15 11 13 16 16 19 21 21
35 32 30 28 27 25 23 21 18 16 14 11 10 9 8 8 8 9 9 9 10 12 14 16 17 17 17 26 17 19 8 8 3 4 16 12 15 19 13 21 23 21 20
36 34 32 30 29 29 28 26 21 19 15 12 9 7 7 7 8 8 8 9 11 13 15 16 17 18 15 27 17 17 9 6 8 16 17 16 21 12 19 26 22 29 28
39 38 35 33 32 30 29 27 24 21 14 12 10 6 6 6 6 6 7 9 11 11 12 14 16 17 11 20 13 6 5 5 7 25 15 17 14 19 30 23 35 25 25
38 41 39 36 33 30 27 25 21 17 18 15 11 8 6 5 4 4 5 6 8 10 12 12 13 16 14 11 13 7 3 3 16 4 12 10 21 25 21 36 28 28 30
36 39 39 36 33 30 28 29 28 25 23 16 14 10 8 6 3 3 3 4 7 9 10 10 10 11 13 13 6 7 5 7 2 5 8 29 16 23 31 28 28 30 30
37 42 41 36 33 30 29 28 27 23 21 18 15 12 11 7 5 3 1 4 6 8 8 9 10 10 10 11 11 13 10 10 12 9 8 3 23 22 28 32 35 35 31
37 42 42 38 33 30 28 27 27 25 23 20 16 14 11 8 5 2 1 3 6 8 9 9 10 10 11 11 11 11 11 7 13 11 8 17 19 19 21 24 24 25 28
Wind_Direction
40 44 192 96 104 124 135 115 113 114 112 104 97 89 84 79 73 70 69 69 70 70 69 68 62 58 54 49 49 53 53 51 68 71 71 67 67 69 70 69 66 67 65
52 46 136 129 112 119 120 121 111 107 101 97 91 86 81 73 70 66 62 61 61 60 62 64 60 58 56 47 44 49 47 56 74 73 71 67 60 63 60 65 66 60 54
77 94 9 121 104 84 90 101 93 85 83 80 79 78 76 74 72 67 64 60 58 57 58 55 55 50 48 43 40 45 56 62 71 65 65 60 57 53 52 55 59 60 51
91 102 57 78 101 94 80 85 86 88 79 78 80 81 79 77 73 70 67 64 61 58 57 55 52 46 41 40 38 43 49 50 64 66 51 43 45 46 45 45 45 39 37
106 105 86 80 92 91 89 86 86 89 89 88 86 83 81 79 77 72 70 68 66 62 57 57 57 52 44 41 44 45 51 56 62 66 52 36 35 37 37 33 33 29 5
116 110 98 99 96 100 100 99 95 94 93 92 86 84 78 76 74 71 68 66 63 61 57 53 53 50 44 38 43 47 52 53 68 65 55 47 37 34 31 25 19 14 15
128 123 118 111 107 106 104 100 99 94 91 90 93 87 83 78 73 72 68 65 62 58 55 53 52 49 46 38 46 52 49 54 63 63 54 48 34 28 33 31 24 11 3
141 137 131 119 112 112 105 103 102 102 102 97 92 87 82 81 80 74 72 65 64 60 55 50 46 44 43 39 47 51 45 42 52 53 44 40 31 21 17 16 12 15 12
156 146 142 130 119 106 103 105 101 101 100 95 90 91 88 84 79 78 71 67 65 62 57 52 50 45 42 39 41 48 43 36 34 37 27 23 15 11 7 2 2 357 355
159 164 150 136 136 125 118 106 103 99 99 99 99 100 97 93 87 75 77 63 62 57 54 48 46 45 47 43 37 46 35 31 27 16 11 10 1 360 356 354 352 350 347
160 155 163 148 141 140 134 118 115 115 121 116 114 109 106 99 91 85 74 65 63 59 51 46 45 47 46 43 35 30 22 18 12 6 356 1 1 353 349 344 341 340 337
166 162 160 157 155 149 143 135 125 126 127 126 118 115 111 101 91 83 76 71 66 62 57 51 46 40 34 31 26 18 12 6 360 358 348 344 350 349 345 340 339 337 335
175 173 169 166 164 167 154 151 139 128 132 124 122 116 110 103 94 86 75 69 62 56 50 45 41 40 32 31 30 24 12 8 359 356 350 345 348 350 345 339 336 335 333
178 174 171 173 172 172 164 157 145 140 133 127 119 113 111 105 95 80 68 63 57 51 46 42 38 34 29 30 25 23 14 3 359 354 349 347 351 350 347 344 341 337 332
178 176 175 172 176 171 169 160 151 142 136 124 116 106 103 98 89 77 67 59 55 48 41 36 32 24 20 24 21 18 7 2 353 351 359 14 9 2 2 358 355 353 353
185 180 176 176 177 174 168 161 153 146 136 126 113 101 97 92 85 77 68 60 53 43 36 32 27 19 19 17 15 9 6 359 2 15 21 18 24 26 17 19 15 10 3
188 181 180 179 179 176 170 163 158 151 138 124 115 107 99 96 86 74 65 56 47 39 36 32 28 21 18 15 7 5 1 6 30 26 16 22 14 21 17 19 13 4 356
188 184 181 181 179 176 170 163 157 150 141 131 125 114 101 97 88 73 63 56 47 39 37 31 22 19 15 6 359 357 357 19 31 15 37 28 15 12 16 12 2 356 350
192 186 182 182 177 172 167 162 158 150 144 136 128 112 98 85 74 65 61 54 44 37 32 28 22 17 10 359 350 344 1 25 7 92 37 0 359 352 350 345 340 333 340
194 191 186 183 178 173 165 160 155 151 144 135 126 111 92 81 78 69 65 55 41 34 29 25 21 18 9 358 344 345 11 0 92 74 342 5 358 338 337 346 346 346 338
195 192 189 183 181 175 168 162 159 156 150 145 133 110 96 86 80 69 63 54 40 33 26 20 17 13 9 5 358 347 9 30 128 351 344 352 343 357 346 343 345 334 326
189 192 190 188 182 182 177 172 168 162 158 152 141 123 105 93 81 68 59 50 37 29 24 21 16 10 13 14 3 338 354 347 285 339 352 349 358 336 328 337 329 333 327
182 185 187 189 185 184 181 174 166 162 157 155 156 145 140 128 94 74 59 47 32 24 22 18 11 7 2 8 31 49 349 332 332 293 359 356 327 326 329 325 330 319 320
180 182 187 187 185 184 184 182 177 169 165 170 168 162 155 150 136 118 86 37 20 21 15 12 360 5 358 0 35 2 344 279 299 315 328 317 336 318 318 319 316 315 315
173 178 186 183 183 182 182 188 182 179 178 169 167 165 163 162 161 147 76 15 15 11 3 354 357 356 352 345 343 337 329 311 266 252 301 314 307 310 311 312 315 311 310
168 175 182 179 179 181 182 183 184 179 173 169 169 169 170 169 166 155 6 6 2 354 352 347 344 340 339 334 333 330 319 306 304 299 297 302 302 304 301 293 284 289 300